Farquhar Airport

Jump to: basic info | weather | runways | comments

Related pages: nearby airports | nearby navaids | notams | map

Basic information (top)

Codes: FSFA
Location: lon -10.109600, lat 51.176102, elev 10 ft / 3 m msl
Status: small_airport

Weather (top)

Current conditions for Prince Said Ibrahim International Airport 474nm (878km) W (rec'd 2014/11/01 04:00Z):

FMCH 010400Z 13004KT 090V170 9999 FEW020 SCT030 27/22 Q1015 NOSIG

Airport forecast for Prince Said Ibrahim International Airport 474nm (878km) W (rec'd 2014/10/31 18:00Z):

TAF FMCH 311700Z 3118/0124 09004KT 9999 FEW020 SCT030 PROB30 
      TEMPO 3122/0106 SHRA 
      BECMG 0105/0107 24012KT 
      BECMG 0118/0120 08004KT

Runways (top)

13/31: 3,035 x 75 ft (925 x 23 m) — paved — not lighted

Latest comments (top)

No comments yet for Farquhar Airport

More... (top)

See also NOTAMs and nearby airports and navaids, or visit the Farquhar Airport page at the main OurAirports website..